Time,TemperatureF,DewpointF,PressureIn,WindDirection,WindDirectionDegrees,WindSpeedMPH,WindSpeedGustMPH,Humidity,HourlyPrecipIn,Conditions,Clouds,dailyrainin,SoftwareType,DateUTC
2013-05-22 00:00:00,62.6,62.0,29.89,SW,214,0.0,0.0,98,0.38,,,5.89,VWS V14.01,2013-05-22 05:00:00,
2013-05-22 00:13:00,62.6,62.0,29.85,NE,53,1.1,2.3,98,0.30,,,0.02,VWS V14.01,2013-05-22 05:13:00,
2013-05-22 00:15:00,62.6,62.0,29.85,NE,53,1.1,2.3,98,0.30,,,0.02,VWS V14.01,2013-05-22 05:15:00,
2013-05-22 00:28:00,62.5,61.9,29.81,East,88,0.0,6.9,98,0.24,,,0.03,VWS V14.01,2013-05-22 05:28:00,
2013-05-22 00:30:00,62.5,61.9,29.81,East,88,0.0,6.9,98,0.24,,,0.03,VWS V14.01,2013-05-22 05:30:00,
2013-05-22 00:43:00,62.4,61.8,29.83,SE,135,1.1,6.9,98,0.16,,,0.04,VWS V14.01,2013-05-22 05:43:00,
2013-05-22 00:45:00,62.4,61.8,29.83,SE,135,1.1,6.9,98,0.16,,,0.04,VWS V14.01,2013-05-22 05:45:00,
2013-05-22 00:58:00,62.4,61.8,29.79,SSE,148,2.3,10.3,98,0.09,,,0.05,VWS V14.01,2013-05-22 05:58:00,
2013-05-22 01:00:00,62.4,61.8,29.79,SSE,148,2.3,10.4,98,0.09,,,0.05,VWS V14.01,2013-05-22 06:00:00,
2013-05-22 01:13:00,62.3,61.7,29.81,SSE,157,2.3,11.5,98,0.06,,,0.06,VWS V14.01,2013-05-22 06:13:00,
2013-05-22 01:15:00,62.3,61.7,29.81,SSE,157,2.3,11.5,98,0.06,,,0.06,VWS V14.01,2013-05-22 06:15:00,
2013-05-22 01:28:00,62.3,61.7,29.79,ESE,113,1.1,11.5,98,0.04,,,0.06,VWS V14.01,2013-05-22 06:28:00,
2013-05-22 01:30:00,62.3,61.7,29.79,ESE,113,1.1,11.5,98,0.04,,,0.06,VWS V14.01,2013-05-22 06:30:00,
2013-05-22 01:43:00,62.3,61.7,29.76,ESE,104,3.4,12.6,98,0.03,,,0.06,VWS V14.01,2013-05-22 06:43:00,
2013-05-22 01:45:00,62.3,61.7,29.76,ESE,104,3.5,12.6,98,0.03,,,0.06,VWS V14.01,2013-05-22 06:45:00,
2013-05-22 01:58:00,62.3,61.7,29.76,SSW,193,5.8,18.4,98,0.02,,,0.06,VWS V14.01,2013-05-22 06:58:00,
2013-05-22 02:00:00,62.3,61.7,29.76,SSW,193,5.8,18.4,98,0.02,,,0.06,VWS V14.01,2013-05-22 07:00:00,
2013-05-22 02:13:00,62.3,61.7,29.75,SSE,148,3.4,10.3,98,0.01,,,0.06,VWS V14.01,2013-05-22 07:13:00,
2013-05-22 02:15:00,62.3,61.7,29.75,SSE,148,3.5,10.4,98,0.01,,,0.06,VWS V14.01,2013-05-22 07:15:00,
2013-05-22 02:30:00,62.2,61.6,29.76,South,181,2.3,9.2,98,0.00,,,0.06,VWS V14.01,2013-05-22 07:30:00,
2013-05-22 02:43:00,62.2,61.6,29.80,West,280,2.3,5.8,98,0.00,,,0.06,VWS V14.01,2013-05-22 07:43:00,
2013-05-22 02:45:00,62.2,61.6,29.80,West,280,2.3,5.8,98,0.00,,,0.06,VWS V14.01,2013-05-22 07:45:00,
2013-05-22 02:58:00,62.2,61.6,29.82,South,180,2.3,5.8,98,0.00,,,0.06,VWS V14.01,2013-05-22 07:58:00,
2013-05-22 03:00:00,62.2,61.6,29.82,South,180,2.3,5.8,98,0.00,,,0.06,VWS V14.01,2013-05-22 08:00:00,
2013-05-22 03:13:00,62.3,61.7,29.82,WSW,253,3.4,3.4,98,0.00,,,0.06,VWS V14.01,2013-05-22 08:13:00,
2013-05-22 03:15:00,62.3,61.7,29.82,WSW,253,3.5,3.5,98,0.00,,,0.06,VWS V14.01,2013-05-22 08:15:00,
2013-05-22 03:28:00,62.2,61.6,29.83,WSW,246,0.0,4.6,98,0.00,,,0.06,VWS V14.01,2013-05-22 08:28:00,
2013-05-22 03:30:00,62.2,61.6,29.83,WSW,246,0.0,4.6,98,0.00,,,0.06,VWS V14.01,2013-05-22 08:30:00,
2013-05-22 03:43:00,62.1,61.5,29.83,SE,133,0.0,2.3,98,0.00,,,0.06,VWS V14.01,2013-05-22 08:43:00,
2013-05-22 03:45:00,62.1,61.5,29.83,SE,133,0.0,2.3,98,0.00,,,0.06,VWS V14.01,2013-05-22 08:45:00,
2013-05-22 03:58:00,61.9,61.3,29.84,SE,132,0.0,1.1,98,0.00,,,0.06,VWS V14.01,2013-05-22 08:58:00,
2013-05-22 04:00:00,61.9,61.3,29.84,SE,132,0.0,1.1,98,0.00,,,0.06,VWS V14.01,2013-05-22 09:00:00,
2013-05-22 04:13:00,61.7,61.1,29.84,SSE,158,0.0,0.0,98,0.00,,,0.06,VWS V14.01,2013-05-22 09:13:00,
2013-05-22 04:15:00,61.7,61.1,29.84,SSE,158,0.0,0.0,98,0.00,,,0.06,VWS V14.01,2013-05-22 09:15:00,
2013-05-22 04:30:00,61.8,61.2,29.84,SSE,160,0.0,1.1,98,0.00,,,0.06,VWS V14.01,2013-05-22 09:30:00,
2013-05-22 04:43:00,62.1,61.5,29.85,SSW,194,0.0,2.3,98,0.00,,,0.06,VWS V14.01,2013-05-22 09:43:00,
2013-05-22 04:45:00,62.1,61.5,29.85,SSW,194,0.0,2.3,98,0.00,,,0.06,VWS V14.01,2013-05-22 09:45:00,
2013-05-22 04:58:00,62.0,61.4,29.85,SSW,194,0.0,0.0,98,0.00,,,0.06,VWS V14.01,2013-05-22 09:58:00,
2013-05-22 05:00:00,62.0,61.4,29.85,SSW,194,0.0,0.0,98,0.00,,,0.06,VWS V14.01,2013-05-22 10:00:00,
2013-05-22 05:15:00,61.9,61.3,29.84,SSW,193,0.0,1.1,98,0.00,,,0.06,VWS V14.01,2013-05-22 10:15:00,
2013-05-22 05:28:00,61.9,61.3,29.85,South,186,0.0,1.1,98,0.00,,,0.06,VWS V14.01,2013-05-22 10:28:00,
2013-05-22 05:30:00,61.9,61.3,29.85,South,186,0.0,1.1,98,0.00,,,0.06,VWS V14.01,2013-05-22 10:30:00,
2013-05-22 05:43:00,62.0,61.4,29.84,South,190,0.0,1.1,98,0.00,,,0.06,VWS V14.01,2013-05-22 10:43:00,
2013-05-22 05:45:00,62.0,61.4,29.84,South,190,0.0,1.1,98,0.00,,,0.06,VWS V14.01,2013-05-22 10:45:00,
2013-05-22 05:58:00,62.0,61.4,29.84,South,170,1.1,1.1,98,0.00,,,0.06,VWS V14.01,2013-05-22 10:58:00,
2013-05-22 06:00:00,62.0,61.4,29.84,South,170,1.1,1.1,98,0.00,,,0.06,VWS V14.01,2013-05-22 11:00:00,
2013-05-22 06:13:00,62.1,61.5,29.84,ESE,117,0.0,3.4,98,0.00,,,0.06,VWS V14.01,2013-05-22 11:13:00,
2013-05-22 06:15:00,62.1,61.5,29.84,ESE,117,0.0,3.5,98,0.00,,,0.06,VWS V14.01,2013-05-22 11:15:00,
2013-05-22 06:28:00,62.2,61.6,29.84,SSW,198,0.0,3.4,98,0.00,,,0.06,VWS V14.01,2013-05-22 11:28:00,
2013-05-22 06:30:00,62.2,61.6,29.84,SSW,198,0.0,3.5,98,0.00,,,0.06,VWS V14.01,2013-05-22 11:30:00,
2013-05-22 06:43:00,62.4,61.8,29.84,South,169,1.1,3.4,98,0.00,,,0.06,VWS V14.01,2013-05-22 11:43:00,
2013-05-22 06:45:00,62.4,61.8,29.84,South,169,1.1,3.5,98,0.00,,,0.06,VWS V14.01,2013-05-22 11:45:00,
2013-05-22 06:58:00,62.6,62.0,29.84,SSW,198,0.0,3.4,98,0.00,,,0.06,VWS V14.01,2013-05-22 11:58:00,
2013-05-22 07:00:00,62.6,62.0,29.84,SSW,198,0.0,3.5,98,0.00,,,0.06,VWS V14.01,2013-05-22 12:00:00,
2013-05-22 07:13:00,62.8,62.2,29.85,SSE,162,0.0,3.4,98,0.00,,,0.06,VWS V14.01,2013-05-22 12:13:00,
2013-05-22 07:15:00,62.8,62.2,29.85,SSE,162,0.0,3.5,98,0.00,,,0.06,VWS V14.01,2013-05-22 12:15:00,
2013-05-22 07:28:00,63.1,62.5,29.85,SSW,211,0.0,2.3,98,0.00,,,0.06,VWS V14.01,2013-05-22 12:28:00,
2013-05-22 07:30:00,63.1,62.5,29.85,SSW,211,0.0,2.3,98,0.00,,,0.06,VWS V14.01,2013-05-22 12:30:00,
2013-05-22 07:43:00,63.3,62.7,29.84,South,190,1.1,2.3,98,0.00,,,0.06,VWS V14.01,2013-05-22 12:43:00,
2013-05-22 07:45:00,63.3,62.7,29.84,South,190,1.1,2.3,98,0.00,,,0.06,VWS V14.01,2013-05-22 12:45:00,
2013-05-22 08:00:00,63.7,62.8,29.84,ESE,121,2.3,4.6,97,0.00,,,0.06,VWS V14.01,2013-05-22 13:00:00,
2013-05-22 08:13:00,63.8,62.9,29.84,South,179,1.1,6.9,97,0.00,,,0.06,VWS V14.01,2013-05-22 13:13:00,
2013-05-22 08:15:00,63.8,62.9,29.84,South,179,1.1,6.9,97,0.00,,,0.06,VWS V14.01,2013-05-22 13:15:00,
2013-05-22 08:30:00,64.1,62.9,29.85,ESE,117,1.1,4.6,96,0.00,,,0.06,VWS V14.01,2013-05-22 13:30:00,
2013-05-22 08:43:00,64.5,63.0,29.85,ESE,119,1.1,6.9,95,0.00,,,0.06,VWS V14.01,2013-05-22 13:43:00,
2013-05-22 08:45:00,64.5,63.0,29.85,ESE,119,1.1,6.9,95,0.00,,,0.06,VWS V14.01,2013-05-22 13:45:00,
2013-05-22 09:00:00,65.0,63.5,29.85,SSW,200,0.0,5.8,95,0.00,,,0.06,VWS V14.01,2013-05-22 14:00:00,
2013-05-22 09:13:00,65.8,63.7,29.86,SSW,193,2.3,6.9,93,0.00,,,0.06,VWS V14.01,2013-05-22 14:13:00,
2013-05-22 09:15:00,65.8,63.7,29.86,SSW,193,2.3,6.9,93,0.00,,,0.06,VWS V14.01,2013-05-22 14:15:00,
2013-05-22 09:28:00,67.2,64.8,29.86,SSE,165,1.1,8.1,92,0.00,,,0.06,VWS V14.01,2013-05-22 14:28:00,
2013-05-22 09:30:00,67.2,64.8,29.86,SSE,165,1.1,8.1,92,0.00,,,0.06,VWS V14.01,2013-05-22 14:30:00,
2013-05-22 09:43:00,68.4,65.0,29.85,WSW,240,2.3,11.5,89,0.00,,,0.06,VWS V14.01,2013-05-22 14:43:00,
2013-05-22 09:45:00,68.4,65.0,29.85,WSW,240,2.3,11.5,89,0.00,,,0.06,VWS V14.01,2013-05-22 14:45:00,
2013-05-22 09:58:00,69.1,65.4,29.86,SSW,207,2.3,13.8,88,0.00,,,0.06,VWS V14.01,2013-05-22 14:58:00,
2013-05-22 10:00:00,69.1,65.4,29.86,SSW,207,2.3,13.8,88,0.00,,,0.06,VWS V14.01,2013-05-22 15:00:00,
2013-05-22 10:15:00,69.3,65.3,29.86,WSW,240,4.6,10.4,87,0.00,,,0.06,VWS V14.01,2013-05-22 15:15:00,
2013-05-22 10:28:00,70.1,65.7,29.86,SW,232,5.8,9.2,86,0.00,,,0.06,VWS V14.01,2013-05-22 15:28:00,
2013-05-22 10:30:00,70.1,65.7,29.86,SW,232,5.8,9.2,86,0.00,,,0.06,VWS V14.01,2013-05-22 15:30:00,
2013-05-22 10:43:00,70.6,65.9,29.87,SSW,204,6.9,11.5,85,0.00,,,0.06,VWS V14.01,2013-05-22 15:43:00,
2013-05-22 10:45:00,70.6,65.9,29.87,SSW,204,6.9,11.5,85,0.00,,,0.06,VWS V14.01,2013-05-22 15:45:00,
2013-05-22 10:58:00,72.0,66.9,29.86,SW,222,8.1,10.3,84,0.00,,,0.06,VWS V14.01,2013-05-22 15:58:00,
2013-05-22 11:00:00,72.0,66.9,29.86,SW,222,8.1,10.4,84,0.00,,,0.06,VWS V14.01,2013-05-22 16:00:00,
2013-05-22 11:13:00,73.3,66.8,29.87,WSW,243,6.9,13.8,80,0.00,,,0.06,VWS V14.01,2013-05-22 16:13:00,
2013-05-22 11:15:00,73.3,66.8,29.87,WSW,243,6.9,13.8,80,0.00,,,0.06,VWS V14.01,2013-05-22 16:15:00,
2013-05-22 11:28:00,73.2,66.3,29.87,SE,142,1.1,14.9,79,0.00,,,0.06,VWS V14.01,2013-05-22 16:28:00,
2013-05-22 11:30:00,73.2,66.3,29.87,SE,142,1.1,14.9,79,0.00,,,0.06,VWS V14.01,2013-05-22 16:30:00,
2013-05-22 11:45:00,74.0,66.3,29.87,WSW,256,1.1,11.5,77,0.00,,,0.06,VWS V14.01,2013-05-22 16:45:00,
2013-05-22 11:58:00,74.0,65.6,29.87,South,181,6.9,12.6,75,0.00,,,0.06,VWS V14.01,2013-05-22 16:58:00,
2013-05-22 12:00:00,74.0,65.6,29.87,South,181,6.9,12.6,75,0.00,,,0.06,VWS V14.01,2013-05-22 17:00:00,
2013-05-22 12:13:00,74.5,66.4,29.87,WSW,240,0.0,10.3,76,0.00,,,0.06,VWS V14.01,2013-05-22 17:13:00,
2013-05-22 12:15:00,74.5,66.4,29.87,WSW,240,0.0,10.4,76,0.00,,,0.06,VWS V14.01,2013-05-22 17:15:00,
2013-05-22 12:28:00,73.3,65.3,29.88,South,174,3.4,6.9,76,0.00,,,0.06,VWS V14.01,2013-05-22 17:28:00,
2013-05-22 12:30:00,73.3,65.3,29.88,South,174,3.5,6.9,76,0.00,,,0.06,VWS V14.01,2013-05-22 17:30:00,
2013-05-22 12:43:00,75.4,65.8,29.88,NW,318,1.1,12.6,72,0.00,,,0.06,VWS V14.01,2013-05-22 17:43:00,
2013-05-22 12:45:00,75.4,65.8,29.88,NW,318,1.1,12.6,72,0.00,,,0.06,VWS V14.01,2013-05-22 17:45:00,
2013-05-22 12:58:00,76.7,66.6,29.87,SW,230,3.4,9.2,71,0.00,,,0.06,VWS V14.01,2013-05-22 17:58:00,
2013-05-22 13:00:00,76.7,66.6,29.87,SW,230,3.5,9.2,71,0.00,,,0.06,VWS V14.01,2013-05-22 18:00:00,
2013-05-22 13:13:00,78.2,66.8,29.87,SW,217,4.6,13.8,68,0.00,,,0.06,VWS V14.01,2013-05-22 18:13:00,
2013-05-22 13:15:00,78.2,66.8,29.87,SW,217,4.6,13.8,68,0.00,,,0.06,VWS V14.01,2013-05-22 18:15:00,
2013-05-22 13:28:00,78.5,67.1,29.87,SSE,157,2.3,12.6,68,0.00,,,0.06,VWS V14.01,2013-05-22 18:28:00,
2013-05-22 13:30:00,78.5,67.1,29.87,SSE,157,2.3,12.6,68,0.00,,,0.06,VWS V14.01,2013-05-22 18:30:00,
2013-05-22 13:43:00,78.0,66.6,29.87,SSE,167,6.9,13.8,68,0.00,,,0.06,VWS V14.01,2013-05-22 18:43:00,
2013-05-22 13:45:00,78.0,66.6,29.87,SSE,167,6.9,13.8,68,0.00,,,0.06,VWS V14.01,2013-05-22 18:45:00,
2013-05-22 13:58:00,78.2,66.4,29.86,South,172,1.1,14.9,67,0.00,,,0.06,VWS V14.01,2013-05-22 18:58:00,
2013-05-22 14:00:00,78.2,66.4,29.86,South,172,1.1,14.9,67,0.00,,,0.06,VWS V14.01,2013-05-22 19:00:00,
2013-05-22 14:13:00,78.3,65.1,29.87,West,280,3.4,16.1,64,0.00,,,0.06,VWS V14.01,2013-05-22 19:13:00,
2013-05-22 14:15:00,78.3,65.1,29.87,West,280,3.5,16.1,64,0.00,,,0.06,VWS V14.01,2013-05-22 19:15:00,
2013-05-22 14:28:00,78.7,65.5,29.86,NE,49,1.1,11.5,64,0.00,,,0.06,VWS V14.01,2013-05-22 19:28:00,
2013-05-22 14:30:00,78.7,65.5,29.86,NE,49,1.1,11.5,64,0.00,,,0.06,VWS V14.01,2013-05-22 19:30:00,
2013-05-22 14:43:00,79.8,67.0,29.86,SW,229,0.0,9.2,65,0.00,,,0.06,VWS V14.01,2013-05-22 19:43:00,
2013-05-22 14:45:00,79.8,67.0,29.86,SW,229,0.0,9.2,65,0.00,,,0.06,VWS V14.01,2013-05-22 19:45:00,
2013-05-22 14:58:00,78.5,65.3,29.86,SSW,210,3.4,12.6,64,0.00,,,0.06,VWS V14.01,2013-05-22 19:58:00,
2013-05-22 15:00:00,78.5,65.3,29.86,SSW,210,3.5,12.6,64,0.00,,,0.06,VWS V14.01,2013-05-22 20:00:00,
2013-05-22 15:13:00,79.0,65.8,29.85,SE,143,3.4,12.6,64,0.00,,,0.06,VWS V14.01,2013-05-22 20:13:00,
2013-05-22 15:15:00,79.0,65.8,29.85,SE,143,3.5,12.6,64,0.00,,,0.06,VWS V14.01,2013-05-22 20:15:00,
2013-05-22 15:28:00,80.2,65.5,29.85,NW,305,2.3,9.2,61,0.00,,,0.06,VWS V14.01,2013-05-22 20:28:00,
2013-05-22 15:30:00,80.2,65.5,29.85,NW,305,2.3,9.2,61,0.00,,,0.06,VWS V14.01,2013-05-22 20:30:00,
2013-05-22 15:43:00,80.6,65.0,29.84,East,96,2.3,9.2,59,0.00,,,0.06,VWS V14.01,2013-05-22 20:43:00,
2013-05-22 15:45:00,80.6,65.0,29.84,East,96,2.3,9.2,59,0.00,,,0.06,VWS V14.01,2013-05-22 20:45:00,
2013-05-22 15:58:00,80.6,65.0,29.84,SSW,211,4.6,9.2,59,0.00,,,0.06,VWS V14.01,2013-05-22 20:58:00,
2013-05-22 16:00:00,80.6,65.0,29.84,SSW,211,4.6,9.2,59,0.00,,,0.06,VWS V14.01,2013-05-22 21:00:00,
2013-05-22 16:13:00,81.2,66.0,29.84,WNW,286,2.3,9.2,60,0.00,,,0.06,VWS V14.01,2013-05-22 21:13:00,
2013-05-22 16:15:00,81.2,66.0,29.84,WNW,286,2.3,9.2,60,0.00,,,0.06,VWS V14.01,2013-05-22 21:15:00,
2013-05-22 16:28:00,81.2,65.0,29.84,SSE,167,2.3,10.3,58,0.00,,,0.06,VWS V14.01,2013-05-22 21:28:00,
2013-05-22 16:30:00,81.2,65.0,29.84,SSE,167,2.3,10.4,58,0.00,,,0.06,VWS V14.01,2013-05-22 21:30:00,
2013-05-22 16:43:00,80.8,64.7,29.84,SSE,153,1.1,8.1,58,0.00,,,0.06,VWS V14.01,2013-05-22 21:43:00,
2013-05-22 16:45:00,80.8,64.7,29.84,SSE,153,1.1,8.1,58,0.00,,,0.06,VWS V14.01,2013-05-22 21:45:00,
2013-05-22 16:58:00,80.5,65.3,29.84,SSE,148,5.8,10.3,60,0.00,,,0.06,VWS V14.01,2013-05-22 21:58:00,
2013-05-22 17:00:00,80.5,65.3,29.84,SSE,148,5.8,10.4,60,0.00,,,0.06,VWS V14.01,2013-05-22 22:00:00,
2013-05-22 17:13:00,79.7,65.1,29.84,South,190,5.8,9.2,61,0.00,,,0.06,VWS V14.01,2013-05-22 22:13:00,
2013-05-22 17:15:00,79.7,65.1,29.84,South,190,5.8,9.2,61,0.00,,,0.06,VWS V14.01,2013-05-22 22:15:00,
2013-05-22 17:28:00,79.1,65.0,29.84,South,182,2.3,10.3,62,0.00,,,0.06,VWS V14.01,2013-05-22 22:28:00,
2013-05-22 17:30:00,79.1,65.0,29.84,South,182,2.3,10.4,62,0.00,,,0.06,VWS V14.01,2013-05-22 22:30:00,
2013-05-22 17:43:00,80.2,65.1,29.84,SSW,208,2.3,9.2,60,0.00,,,0.06,VWS V14.01,2013-05-22 22:43:00,
2013-05-22 17:45:00,80.2,65.1,29.84,SSW,208,2.3,9.2,60,0.00,,,0.06,VWS V14.01,2013-05-22 22:45:00,
2013-05-22 17:58:00,80.9,65.2,29.84,SW,214,1.1,8.1,59,0.00,,,0.06,VWS V14.01,2013-05-22 22:58:00,
2013-05-22 18:00:00,80.9,65.2,29.84,SW,214,1.1,8.1,59,0.00,,,0.06,VWS V14.01,2013-05-22 23:00:00,
2013-05-22 18:15:00,80.7,64.6,29.84,SSE,163,2.3,9.2,58,0.00,,,0.06,VWS V14.01,2013-05-22 23:15:00,
2013-05-22 18:30:00,79.9,64.8,29.84,SE,139,1.1,9.2,60,0.00,,,0.06,VWS V14.01,2013-05-22 23:30:00,
2013-05-22 18:43:00,79.4,63.8,29.84,SW,218,0.0,6.9,59,0.00,,,0.06,VWS V14.01,2013-05-22 23:43:00,
2013-05-22 18:45:00,79.4,63.8,29.84,SW,218,0.0,6.9,59,0.00,,,0.06,VWS V14.01,2013-05-22 23:45:00,
2013-05-22 18:58:00,78.3,64.2,29.84,SE,124,0.0,8.1,62,0.00,,,0.06,VWS V14.01,2013-05-22 23:58:00,
2013-05-22 19:00:00,78.3,64.2,29.84,SE,124,0.0,8.1,62,0.00,,,0.06,VWS V14.01,2013-05-23 00:00:00,
2013-05-22 19:13:00,77.4,63.8,29.84,WSW,243,0.0,6.9,63,0.00,,,0.06,VWS V14.01,2013-05-23 00:13:00,
2013-05-22 19:15:00,77.4,63.8,29.84,WSW,243,0.0,6.9,63,0.00,,,0.06,VWS V14.01,2013-05-23 00:15:00,
2013-05-22 19:28:00,76.8,63.3,29.85,SW,231,0.0,6.9,63,0.00,,,0.06,VWS V14.01,2013-05-23 00:28:00,
2013-05-22 19:30:00,76.8,63.3,29.85,SW,231,0.0,6.9,63,0.00,,,0.06,VWS V14.01,2013-05-23 00:30:00,
2013-05-22 19:43:00,76.0,63.0,29.85,South,188,1.1,6.9,64,0.00,,,0.06,VWS V14.01,2013-05-23 00:43:00,
2013-05-22 19:45:00,76.0,63.0,29.85,South,188,1.1,6.9,64,0.00,,,0.06,VWS V14.01,2013-05-23 00:45:00,
2013-05-22 19:58:00,75.4,63.3,29.85,SW,218,0.0,3.4,66,0.00,,,0.06,VWS V14.01,2013-05-23 00:58:00,
2013-05-22 20:00:00,75.4,63.3,29.85,SW,218,0.0,3.5,66,0.00,,,0.06,VWS V14.01,2013-05-23 01:00:00,
2013-05-22 20:13:00,74.6,63.3,29.85,South,191,0.0,2.3,68,0.00,,,0.06,VWS V14.01,2013-05-23 01:13:00,
2013-05-22 20:15:00,74.6,63.3,29.85,South,191,0.0,2.3,68,0.00,,,0.06,VWS V14.01,2013-05-23 01:15:00,
2013-05-22 20:28:00,73.9,63.5,29.85,SSW,204,0.0,1.1,70,0.00,,,0.06,VWS V14.01,2013-05-23 01:28:00,
2013-05-22 20:30:00,73.9,63.5,29.85,SSW,204,0.0,1.1,70,0.00,,,0.06,VWS V14.01,2013-05-23 01:30:00,
2013-05-22 20:43:00,73.0,63.5,29.86,South,190,0.0,1.1,72,0.00,,,0.06,VWS V14.01,2013-05-23 01:43:00,
2013-05-22 20:45:00,73.0,63.5,29.86,South,190,0.0,1.1,72,0.00,,,0.06,VWS V14.01,2013-05-23 01:45:00,
2013-05-22 20:58:00,72.5,63.8,29.86,South,175,0.0,1.1,74,0.00,,,0.06,VWS V14.01,2013-05-23 01:58:00,
2013-05-22 21:00:00,72.5,63.8,29.86,South,175,0.0,1.1,74,0.00,,,0.06,VWS V14.01,2013-05-23 02:00:00,
2013-05-22 21:13:00,72.0,63.7,29.87,SSW,206,0.0,2.3,75,0.00,,,0.06,VWS V14.01,2013-05-23 02:13:00,
2013-05-22 21:15:00,72.0,63.7,29.87,SSW,206,0.0,2.3,75,0.00,,,0.06,VWS V14.01,2013-05-23 02:15:00,
2013-05-22 21:28:00,71.1,63.5,29.87,SSW,205,0.0,0.0,77,0.00,,,0.06,VWS V14.01,2013-05-23 02:28:00,
2013-05-22 21:30:00,71.1,63.5,29.87,SSW,205,0.0,0.0,77,0.00,,,0.06,VWS V14.01,2013-05-23 02:30:00,
2013-05-22 21:43:00,70.3,63.5,29.88,SSE,167,0.0,0.0,79,0.00,,,0.06,VWS V14.01,2013-05-23 02:43:00,
2013-05-22 21:45:00,70.3,63.5,29.88,SSE,167,0.0,0.0,79,0.00,,,0.06,VWS V14.01,2013-05-23 02:45:00,
2013-05-22 21:58:00,68.9,63.5,29.88,SSE,167,0.0,0.0,83,0.00,,,0.06,VWS V14.01,2013-05-23 02:58:00,
2013-05-22 22:00:00,68.9,63.5,29.88,SSE,167,0.0,0.0,83,0.00,,,0.06,VWS V14.01,2013-05-23 03:00:00,
2013-05-22 22:13:00,68.1,63.4,29.88,SSE,168,0.0,0.0,85,0.00,,,0.06,VWS V14.01,2013-05-23 03:13:00,
2013-05-22 22:15:00,68.1,63.4,29.88,SSE,168,0.0,0.0,85,0.00,,,0.06,VWS V14.01,2013-05-23 03:15:00,
2013-05-22 22:28:00,67.8,63.1,29.89,SSE,167,0.0,0.0,85,0.00,,,0.06,VWS V14.01,2013-05-23 03:28:00,
2013-05-22 22:30:00,67.8,63.1,29.89,SSE,167,0.0,0.0,85,0.00,,,0.06,VWS V14.01,2013-05-23 03:30:00,
2013-05-22 22:43:00,67.7,63.4,29.89,SSE,167,0.0,0.0,86,0.00,,,0.06,VWS V14.01,2013-05-23 03:43:00,
2013-05-22 22:45:00,67.7,63.4,29.89,SSE,167,0.0,0.0,86,0.00,,,0.06,VWS V14.01,2013-05-23 03:45:00,
2013-05-22 22:58:00,68.0,63.3,29.89,SSW,207,0.0,1.1,85,0.00,,,0.06,VWS V14.01,2013-05-23 03:58:00,
2013-05-22 23:00:00,68.0,63.3,29.89,SSW,207,0.0,1.1,85,0.00,,,0.06,VWS V14.01,2013-05-23 04:00:00,
2013-05-22 23:13:00,67.3,63.3,29.90,SSW,207,0.0,0.0,87,0.00,,,0.06,VWS V14.01,2013-05-23 04:13:00,
2013-05-22 23:15:00,67.3,63.3,29.90,SSW,207,0.0,0.0,87,0.00,,,0.06,VWS V14.01,2013-05-23 04:15:00,
2013-05-22 23:28:00,66.7,63.0,29.90,SSW,207,0.0,0.0,88,0.00,,,0.06,VWS V14.01,2013-05-23 04:28:00,
2013-05-22 23:30:00,66.7,63.0,29.90,SSW,207,0.0,0.0,88,0.00,,,0.06,VWS V14.01,2013-05-23 04:30:00,
2013-05-22 23:43:00,67.1,63.4,29.90,SSW,198,0.0,1.1,88,0.00,,,0.06,VWS V14.01,2013-05-23 04:43:00,
2013-05-22 23:45:00,67.1,63.4,29.90,SSW,198,0.0,1.1,88,0.00,,,0.06,VWS V14.01,2013-05-23 04:45:00,
2013-05-22 23:58:00,67.0,63.3,29.90,South,187,0.0,0.0,88,0.00,,,0.06,VWS V14.01,2013-05-23 04:58:00,